Tracking 31027 objects as of 19-Jul-2025
HD Live streaming from Space Station
objects crossing your sky now

YZ-1 R/B

Track YZ-1 R/B now!


NORAD ID: 43210
Int'l Code: 2018-018D
Perigee: 22,168.1 km
Apogee: 22,383.6 km
Inclination: 56.1 °
Period: 804.2 minutes
Semi major axis: 28646 km
RCS: Unknown
Launch date: February 12, 2018
Source: People's Republic of China (PRC)
Launch site: Xichang Space Center, China (XSC)

Note: This is a ROCKET BODY
Your satellite tracking list
STARLINK-31009
Track 1 satellite(s)




NASA's NSSDC Master Catalog

Two Line Element Set (TLE):
1 43210U 18018D   25197.18162866 -.00000023  00000-0  00000-0 0  9996
2 43210  56.1289  81.2930 0037618  99.7863 260.7036  1.79055430 48542
Source of the keplerian elements: AFSPC